When you browse on this site, cookies collect data to enhance your experience and personalize the content and advertising you see.
Visit our Privacy Policy to learn more. By continuing to use the site, you agree to this use of cookies and data.
  • In Österreich
  • Länderverzeichnis
  • Für 7 Tage
  • Wassertemperatur
  • Wetterkarte
  • News
  • Widgets
  • user-avatar
    Anmelden

    Stündliche Wetter Chapulhuacán

    Heute, 17 August, Samstag

    Zeit Temperatur Niederschläge Wind Luftdruck Luftfeuchtigkeit
    00:00 +22°C° 0 mm 1 m/S 677 mmHg 84%
    01:00 +21°C° 0 mm 1 m/S 677 mmHg 84%
    02:00 +21°C° 0 mm 1 m/S 676 mmHg 85%
    03:00 +21°C° 0 mm 1 m/S 676 mmHg 85%
    04:00 +20°C° 0 mm 1 m/S 676 mmHg 85%
    05:00 +20°C° 0 mm 1 m/S 676 mmHg 84%
    06:00 +23°C° 0 mm 1 m/S 677 mmHg 76%
    07:00 +23°C° 0 mm 0 m/S 677 mmHg 68%
    08:00 +26°C° 0 mm 0 m/S 678 mmHg 60%
    09:00 +29°C° 0 mm 1 m/S 678 mmHg 57%
    10:00 +30°C° 0 mm 1 m/S 678 mmHg 53%
    11:00 +31°C° 0 mm 2 m/S 678 mmHg 50%
    12:00 +31°C° 0 mm 2 m/S 677 mmHg 51%
    13:00 +31°C° 0 mm 2 m/S 676 mmHg 52%
    14:00 +31°C° 0 mm 2 m/S 676 mmHg 53%
    15:00 +30°C° 0 mm 2 m/S 675 mmHg 57%
    16:00 +29°C° 0 mm 2 m/S 675 mmHg 61%
    17:00 +28°C° 0 mm 1 m/S 675 mmHg 65%
    18:00 +26°C° 0 mm 1 m/S 675 mmHg 72%
    19:00 +25°C° 0 mm 1 m/S 675 mmHg 78%
    20:00 +23°C° 0 mm 1 m/S 676 mmHg 84%
    21:00 +22°C° 0 mm 1 m/S 676 mmHg 86%
    22:00 +22°C° 0 mm 1 m/S 676 mmHg 88%
    23:00 +22°C° 0 mm 1 m/S 676 mmHg 90%

    Morgen, 18 August, Sonntag

    Zeit Temperatur Niederschläge Wind Luftdruck Luftfeuchtigkeit
    00:00 +21°C° 0 mm 1 m/S 676 mmHg 91%
    01:00 +19°C° 0 mm 0 m/S 676 mmHg 92%
    02:00 +19°C° 0 mm 0 m/S 675 mmHg 94%
    03:00 +19°C° 0 mm 0 m/S 675 mmHg 93%
    04:00 +19°C° 0 mm 0 m/S 676 mmHg 92%
    05:00 +19°C° 0 mm 0 m/S 676 mmHg 92%
    06:00 +21°C° 0 mm 0 m/S 676 mmHg 87%
    07:00 +22°C° 0 mm 0 m/S 677 mmHg 82%
    08:00 +23°C° 0 mm 0 m/S 677 mmHg 77%
    09:00 +27°C° 0 mm 1 m/S 677 mmHg 70%
    10:00 +28°C° 0 mm 1 m/S 677 mmHg 62%
    11:00 +30°C° 0 mm 2 m/S 677 mmHg 55%
    12:00 +30°C° 0 mm 2 m/S 677 mmHg 55%
    13:00 +30°C° 0 mm 2 m/S 676 mmHg 55%
    14:00 +31°C° 0 mm 2 m/S 675 mmHg 55%
    15:00 +30°C° 0 mm 2 m/S 675 mmHg 60%
    16:00 +29°C° 0 mm 2 m/S 675 mmHg 64%
    17:00 +28°C° 0 mm 1 m/S 675 mmHg 69%
    18:00 +26°C° 0 mm 1 m/S 675 mmHg 75%
    19:00 +24°C° 0 mm 1 m/S 676 mmHg 82%
    20:00 +23°C° 0 mm 1 m/S 676 mmHg 89%
    21:00 +22°C° 0.1 mm 1 m/S 676 mmHg 92%
    22:00 +22°C° 0.1 mm 1 m/S 676 mmHg 94%
    23:00 +22°C° 0.1 mm 1 m/S 676 mmHg 96%

    übermorgen, 19 August, Montag

    Zeit Temperatur Niederschläge Wind Luftdruck Luftfeuchtigkeit
    00:00 +21°C° 0.3 mm 1 m/S 676 mmHg 96%
    01:00 +21°C° 0.3 mm 1 m/S 676 mmHg 96%
    02:00 +21°C° 0.3 mm 1 m/S 675 mmHg 96%
    03:00 +21°C° 0.6 mm 1 m/S 676 mmHg 95%
    04:00 +19°C° 0.6 mm 0 m/S 676 mmHg 95%
    05:00 +19°C° 0.6 mm 0 m/S 676 mmHg 95%
    06:00 +22°C° 0.2 mm 1 m/S 676 mmHg 90%
    07:00 +24°C° 0.2 mm 1 m/S 677 mmHg 85%
    08:00 +25°C° 0.2 mm 1 m/S 678 mmHg 80%
    09:00 +26°C° 0.3 mm 1 m/S 678 mmHg 77%
    10:00 +27°C° 0.3 mm 1 m/S 678 mmHg 74%
    11:00 +28°C° 0.3 mm 2 m/S 677 mmHg 71%
    12:00 +28°C° 1.1 mm 2 m/S 677 mmHg 72%
    13:00 +27°C° 1.1 mm 2 m/S 676 mmHg 73%
    14:00 +27°C° 1.1 mm 2 m/S 675 mmHg 74%
    15:00 +26°C° 1.5 mm 1 m/S 675 mmHg 79%
    16:00 +25°C° 1.5 mm 1 m/S 676 mmHg 84%
    17:00 +24°C° 1.5 mm 1 m/S 676 mmHg 89%
    18:00 +23°C° 0.7 mm 1 m/S 676 mmHg 91%
    19:00 +22°C° 0.7 mm 1 m/S 676 mmHg 93%
    20:00 +21°C° 0.7 mm 1 m/S 677 mmHg 95%
    21:00 +21°C° 0.2 mm 1 m/S 677 mmHg 95%
    22:00 +21°C° 0.2 mm 1 m/S 677 mmHg 96%
    23:00 +18°C° 0.2 mm 0 m/S 677 mmHg 96%

    20 August, Dienstag

    Zeit Temperatur Niederschläge Wind Luftdruck Luftfeuchtigkeit
    00:00 +20°C° 0 mm 1 m/S 677 mmHg 96%
    01:00 +20°C° 0 mm 1 m/S 677 mmHg 96%
    02:00 +19°C° 0 mm 1 m/S 676 mmHg 96%
    03:00 +17°C° 0 mm 0 m/S 677 mmHg 95%
    04:00 +17°C° 0 mm 0 m/S 677 mmHg 95%
    05:00 +17°C° 0 mm 0 m/S 677 mmHg 94%
    06:00 +18°C° 0 mm 0 m/S 678 mmHg 91%
    07:00 +20°C° 0 mm 0 m/S 678 mmHg 88%
    08:00 +21°C° 0 mm 0 m/S 679 mmHg 85%
    09:00 +24°C° 0 mm 1 m/S 679 mmHg 76%
    10:00 +26°C° 0 mm 1 m/S 679 mmHg 67%
    11:00 +28°C° 0 mm 2 m/S 679 mmHg 58%
    12:00 +28°C° 0.3 mm 2 m/S 678 mmHg 61%
    13:00 +27°C° 0.3 mm 2 m/S 677 mmHg 64%
    14:00 +27°C° 0.3 mm 2 m/S 677 mmHg 67%
    15:00 +26°C° 0.6 mm 2 m/S 677 mmHg 73%
    16:00 +25°C° 0.6 mm 1 m/S 677 mmHg 80%
    17:00 +24°C° 0.6 mm 1 m/S 677 mmHg 86%
    18:00 +23°C° 0.6 mm 1 m/S 677 mmHg 89%
    19:00 +22°C° 0.6 mm 1 m/S 678 mmHg 92%
    20:00 +21°C° 0.6 mm 1 m/S 678 mmHg 95%
    21:00 +20°C° 0.1 mm 1 m/S 678 mmHg 94%
    22:00 +20°C° 0.1 mm 1 m/S 678 mmHg 94%
    23:00 +20°C° 0.1 mm 1 m/S 678 mmHg 94%

    21 August, Mittwoch

    Zeit Temperatur Niederschläge Wind Luftdruck Luftfeuchtigkeit
    00:00 +19°C° 0.1 mm 1 m/S 678 mmHg 94%
    01:00 +19°C° 0.1 mm 1 m/S 677 mmHg 94%
    02:00 +19°C° 0.1 mm 1 m/S 677 mmHg 94%
    03:00 +19°C° 0 mm 1 m/S 677 mmHg 94%
    04:00 +19°C° 0 mm 1 m/S 677 mmHg 94%
    05:00 +19°C° 0 mm 1 m/S 677 mmHg 94%
    06:00 +20°C° 0 mm 1 m/S 678 mmHg 88%
    07:00 +20°C° 0 mm 0 m/S 679 mmHg 82%
    08:00 +22°C° 0 mm 0 m/S 679 mmHg 76%
    09:00 +25°C° 0 mm 1 m/S 679 mmHg 69%
    10:00 +27°C° 0 mm 1 m/S 679 mmHg 63%
    11:00 +28°C° 0 mm 2 m/S 679 mmHg 57%
    12:00 +28°C° 0.3 mm 2 m/S 678 mmHg 59%
    13:00 +28°C° 0.3 mm 2 m/S 677 mmHg 60%
    14:00 +28°C° 0.3 mm 2 m/S 677 mmHg 62%
    15:00 +27°C° 0.4 mm 2 m/S 677 mmHg 67%
    16:00 +26°C° 0.4 mm 1 m/S 677 mmHg 72%
    17:00 +25°C° 0.4 mm 1 m/S 677 mmHg 77%
    18:00 +23°C° 0.4 mm 1 m/S 677 mmHg 81%
    19:00 +22°C° 0.4 mm 1 m/S 678 mmHg 86%
    20:00 +19°C° 0.4 mm 0 m/S 678 mmHg 91%
    21:00 +21°C° 0.4 mm 1 m/S 678 mmHg 92%
    22:00 +20°C° 0.4 mm 1 m/S 678 mmHg 93%
    23:00 +20°C° 0.4 mm 1 m/S 678 mmHg 94%

    22 August, Donnerstag

    Zeit Temperatur Niederschläge Wind Luftdruck Luftfeuchtigkeit
    00:00 +20°C° 0 mm 1 m/S 677 mmHg 93%
    01:00 +20°C° 0 mm 1 m/S 677 mmHg 93%
    02:00 +19°C° 0 mm 1 m/S 676 mmHg 92%
    03:00 +19°C° 0 mm 1 m/S 676 mmHg 92%
    04:00 +19°C° 0 mm 1 m/S 677 mmHg 92%
    05:00 +19°C° 0 mm 1 m/S 677 mmHg 91%
    06:00 +21°C° 0 mm 1 m/S 677 mmHg 83%
    07:00 +22°C° 0 mm 0 m/S 678 mmHg 75%
    08:00 +24°C° 0 mm 0 m/S 679 mmHg 67%
    09:00 +27°C° 0 mm 1 m/S 678 mmHg 62%
    10:00 +28°C° 0 mm 1 m/S 678 mmHg 58%
    11:00 +29°C° 0 mm 2 m/S 678 mmHg 53%
    12:00 +29°C° 0.5 mm 2 m/S 678 mmHg 54%
    13:00 +29°C° 0.5 mm 2 m/S 677 mmHg 55%
    14:00 +29°C° 0.5 mm 2 m/S 677 mmHg 56%
    15:00 +28°C° 1.1 mm 2 m/S 676 mmHg 67%
    16:00 +26°C° 1.1 mm 1 m/S 676 mmHg 77%
    17:00 +24°C° 1.1 mm 1 m/S 676 mmHg 88%
    18:00 +23°C° 2.1 mm 1 m/S 676 mmHg 90%
    19:00 +22°C° 2.1 mm 1 m/S 677 mmHg 92%
    20:00 +21°C° 2.1 mm 1 m/S 677 mmHg 94%
    21:00 +21°C° 0.9 mm 1 m/S 677 mmHg 94%
    22:00 +21°C° 0.9 mm 1 m/S 677 mmHg 94%
    23:00 +21°C° 0.9 mm 1 m/S 677 mmHg 94%
    Mehr zeigen